TEN-KOH (43677 NORAD) Tracking and Keplerian Element Data

This shows tracking and keplerian element data for the satellite.

Feedback or suggestion? Click here.




ElementValue
Catalog43677
NameTEN-KOH
Epoch Orbit309
Epoch Day323.03444862
Epoch Year2018
RAAN73.3994
Inclination97.8361
Eccentricity0.0014614
Argument of Perigee260.2076
Mean Anonmoly99.7457
Mean Motion14.90094131
Decay Rate-3.82E-06
L11 43677U 18084G 18323.03444862 -.00000382 00000-0 -33603-4 0 9990
L22 43677 97.8361 73.3994 0014614 260.2076 99.7457 14.90094131 3092

Live tracking and technical data element details for TEN-KOH (NORAD 43677). TEN-KOH can be tracked NOW for your location showing map with azimuth and elevation plus other details from your city location.

Track the satellite on the map from your city or location and see movement details for azimuth, elevation, latitude, longitude, range, height, and movement on the map or in text.







IsCatalogInMostPopularTable: catalog: 43677, numindb: 11
Update: records affected: 1



GetName: 43677 TEN-KOH

Hit Count: updated at: Tue, 20 Nov 2018 11:13:54 GMT